FW3849 Weather Reports


time (UTC)temp
F
wind
direction
speed
knots
gust
knots
rain 1hr
in
rain 24hr
in
rain mn
in
humidity
%
barometer
mb
20220811230042 76 200 6.1 9.6 0.15 0.15 0.15 65 1013.2
20220811225541 77 166 5.2 11.3 0.15 0.15 0.15 64 1013.3
20220811225041 77 197 7.8 13.0 0.15 0.15 0.15 62 1013.2
20220811224038 77 225 7.8 13.0 0.15 0.15 0.15 62 1013.2
20220811223542 78 214 6.1 9.6 0.14 0.14 0.14 61 1013.4
20220811223040 81 180 2.6 12.2 0.11 0.11 0.11 54 1014.1
20220811222540 85 138 4.3 19.1 0.04 0.04 0.04 45 1014.3
20220811222038 87 171 8.7 19.1 0.01 0.01 0.01 38 1013.6
20220811221550 86 110 5.2 10.4 0.01 0.01 0.01 42 1012.8
20220811221034 86 241 5.2 8.7 0.01 0.01 0.01 44 1012.2
20220811220533 86 204 1.7 7.8 0.01 0.01 0.01 42 1012.2
20220811220033 85 334 2.6 19.1 0.00 0.00 0.00 41 1012.4
20220811215532 86 319 7.0 19.1 0.00 0.00 0.00 40 1012.6
20220811215033 94 327 6.1 15.6 0.00 0.00 0.00 32 1012.7
20220811214031 97 16 2.6 6.1 0.00 0.00 0.00 21 1012.4
20220811213531 98 185 0.9 7.8 0.00 0.00 0.00 20 1012.5
20220811213043 98 68 2.6 7.0 0.00 0.00 0.00 21 1012.5
20220811212533 96 332 1.7 7.8 0.00 0.00 0.00 22 1012.5
20220811212029 96 50 1.7 7.8 0.00 0.00 0.00 22 1012.7
20220811211540 96 46 3.5 7.8 0.00 0.00 0.00 23 1012.7
20220811211033 96 240 1.7 5.2 0.00 0.00 0.00 22 1012.8
20220811210531 96 135 1.7 4.3 0.00 0.00 0.00 22 1012.9
20220811210026 96 338 0.0 7.0 0.00 0.00 0.00 22 1013.0
20220811205533 96 64 1.7 7.0 0.00 0.00 0.00 23 1013.0
20220811205026 96 200 1.7 7.0 0.00 0.00 0.00 23 1013.2
20220811204032 95 7 2.6 7.0 0.00 0.00 0.00 23 1013.5
20220811203527 95 232 1.7 7.0 0.00 0.00 0.00 23 1013.4
20220811203033 95 14 2.6 7.0 0.00 0.00 0.00 24 1013.6
20220811202523 95 19 2.6 5.2 0.00 0.00 0.00 24 1013.7
20220811202027 95 35 0.0 6.1 0.00 0.00 0.00 24 1013.7
20220811201523 95 44 2.6 4.3 0.00 0.00 0.00 24 1013.8
20220811201029 95 320 0.9 4.3 0.00 0.00 0.00 24 1013.7
20220811200522 96 127 1.7 7.8 0.00 0.00 0.00 22 1013.9
20220811200022 96 68 1.7 7.8 0.00 0.00 0.00 23 1014.0
20220811195523 97 133 2.6 9.6 0.00 0.00 0.00 23 1014.1
20220811195020 97 66 4.3 9.6 0.00 0.00 0.00 23 1014.1
20220811194027 96 74 4.3 12.2 0.00 0.00 0.00 25 1014.3
20220811193518 95 52 5.2 12.2 0.00 0.00 0.00 27 1014.4
20220811193016 93 63 6.1 13.9 0.00 0.00 0.00 28 1014.4
20220811192519 92 50 8.7 13.9 0.00 0.00 0.00 30 1014.4
20220811192021 92 62 7.8 13.9 0.00 0.00 0.00 29 1014.5
20220811191515 94 37 4.3 9.6 0.00 0.00 0.00 28 1014.6
20220811191017 94 72 1.7 6.1 0.00 0.00 0.00 27 1014.5
20220811190522 95 339 2.6 6.1 0.00 0.00 0.00 27 1014.6
20220811190014 94 13 0.9 7.8 0.00 0.00 0.00 28 1014.7
20220811185510 93 318 3.5 8.7 0.00 0.00 0.00 28 1014.8
20220811185011 93 1 3.5 9.6 0.00 0.00 0.00 28 1014.9
20220811184014 94 109 1.7 6.1 0.00 0.00 0.00 28 1015.1
20220811183508 93 62 2.6 6.1 0.00 0.00 0.00 28 1015.2
20220811183008 93 21 2.6 6.1 0.00 0.00 0.00 28 1015.3
20220811182503 92 358 1.7 5.2 0.00 0.00 0.00 29 1015.4
20220811182002 92 349 0.9 6.1 0.00 0.00 0.00 29 1015.5
20220811181502 92 311 2.6 6.1 0.00 0.00 0.00 29 1015.7
20220811181104 91 43 0.0 5.2 0.00 0.00 0.00 30 1015.7
20220811180601 91 117 0.0 5.2 0.00 0.00 0.00 30 1015.9
20220811180101 91 48 1.7 5.2 0.00 0.00 0.00 30 1015.9
20220811175557 91 88 0.9 4.3 0.00 0.00 0.00 31 1016.1
20220811175102 92 117 0.9 5.2 0.00 0.00 0.00 30 1016.2
20220811174054 92 81 1.7 4.3 0.00 0.00 0.00 30 1016.4
20220811173553 92 29 1.7 6.1 0.00 0.00 0.00 30 1016.4
20220811173051 91 349 2.6 6.1 0.00 0.00 0.00 30 1016.5
20220811172550 91 46 0.0 7.8 0.00 0.00 0.00 30 1016.6
20220811172050 91 46 3.5 7.0 0.00 0.00 0.00 31 1016.6
20220811171550 91 351 3.5 6.1 0.00 0.00 0.00 32 1016.6
20220811171047 91 344 1.7 7.8 0.00 0.00 0.00 32 1016.7
20220811170546 90 10 2.6 7.8 0.00 0.00 0.00 33 1016.9
20220811170049 90 50 3.5 8.7 0.00 0.00 0.00 34 1016.7
20220811165550 89 62 1.7 7.8 0.00 0.00 0.00 34 1016.7
20220811165044 89 197 3.5 7.0 0.00 0.00 0.00 35 1016.8
20220811164043 89 287 2.6 6.1 0.00 0.00 0.00 35 1016.8
20220811163541 88 71 1.7 5.2 0.00 0.00 0.00 37 1016.9
20220811163041 88 185 1.7 5.2 0.00 0.00 0.00 37 1016.8
20220811162541 89 193 1.7 6.1 0.00 0.00 0.00 36 1016.8
20220811162043 89 63 0.9 4.3 0.00 0.00 0.00 36 1016.8
20220811161557 88 87 0.9 4.3 0.00 0.00 0.00 37 1016.9
20220811161040 87 29 1.7 3.5 0.00 0.00 0.00 39 1017.0
20220811160538 86 266 2.6 4.3 0.00 0.00 0.00 39 1016.9
20220811160042 86 117 1.7 4.3 0.00 0.00 0.00 40 1016.8
20220811155538 85 193 1.7 4.3 0.00 0.00 0.00 40 1016.8
20220811155040 86 111 1.7 3.5 0.00 0.00 0.00 40 1016.7
20220811154038 86 152 1.7 5.2 0.00 0.00 0.00 40 1016.7
20220811153537 87 56 2.6 5.2 0.00 0.00 0.00 39 1016.7
20220811153042 85 52 3.5 6.1 0.00 0.00 0.00 41 1016.7
20220811152542 85 72 2.6 5.2 0.00 0.00 0.00 42 1016.7
20220811152033 84 209 2.6 6.1 0.00 0.00 0.00 43 1016.8
20220811151534 84 218 1.7 7.0 0.00 0.00 0.00 44 1016.7
20220811151030 83 191 3.5 7.0 0.00 0.00 0.00 44 1016.7
20220811150529 83 198 2.6 7.0 0.00 0.00 0.00 44 1016.8
20220811150029 82 181 3.5 7.0 0.00 0.00 0.00 45 1016.8
20220811145531 82 202 3.5 7.0 0.00 0.00 0.00 45 1016.8
20220811145036 82 200 4.3 7.0 0.00 0.00 0.00 45 1016.8
20220811144028 81 56 1.7 5.2 0.00 0.00 0.00 46 1016.9
20220811143528 81 156 2.6 5.2 0.00 0.00 0.00 46 1016.8
20220811143048 81 140 2.6 5.2 0.00 0.00 0.00 46 1016.9
20220811142528 81 75 2.6 5.2 0.00 0.00 0.00 47 1016.8
20220811142032 80 137 1.7 4.3 0.00 0.00 0.00 47 1016.7
20220811141527 80 183 0.9 4.3 0.00 0.00 0.00 48 1016.8
20220811141026 79 166 1.7 4.3 0.00 0.00 0.00 48 1016.8
20220811140527 79 203 1.7 3.5 0.00 0.00 0.00 48 1016.8
20220811140044 79 197 1.7 3.5 0.00 0.00 0.00 48 1016.7
20220811135534 79 183 1.7 3.5 0.00 0.00 0.00 48 1016.7
20220811135031 78 198 0.0 1.7 0.00 0.00 0.00 49 1016.8
20220811134026 78 198 0.9 2.6 0.00 0.00 0.00 49 1016.7
20220811133527 78 198 0.9 2.6 0.00 0.00 0.00 49 1016.7
20220811133032 78 198 0.9 1.7 0.00 0.00 0.00 49 1016.7
20220811132529 78 199 0.0 1.7 0.00 0.00 0.00 49 1016.7
20220811132033 77 206 0.9 2.6 0.00 0.00 0.00 49 1016.7
20220811131525 77 206 0.9 2.6 0.00 0.00 0.00 49 1016.7
20220811131027 77 206 0.0 1.7 0.00 0.00 0.00 49 1016.7
20220811130529 77 206 0.9 1.7 0.00 0.00 0.00 50 1016.6
20220811130046 77 207 0.9 2.6 0.00 0.00 0.00 50 1016.5
20220811125526 77 207 1.7 2.6 0.00 0.00 0.00 50 1016.4
20220811125025 77 198 0.9 1.7 0.00 0.00 0.00 50 1016.4
20220811124029 77 198 0.0 2.6 0.00 0.00 0.00 50 1016.3
20220811123526 77 197 0.9 2.6 0.00 0.00 0.00 50 1016.2
20220811123035 77 181 0.9 1.7 0.00 0.00 0.00 50 1016.3
20220811122529 77 180 0.9 1.7 0.00 0.00 0.00 50 1016.3
20220811122030 77 181 0.0 0.9 0.00 0.00 0.00 50 1016.4
20220811121526 77 180 0.0 1.7 0.00 0.00 0.00 50 1016.3
20220811121029 77 181 0.0 1.7 0.00 0.00 0.00 50 1016.2
20220811120526 77 181 0.0 1.7 0.00 0.00 0.00 50 1016.1
20220811120024 77 181 0.0 0.9 0.00 0.00 0.00 49 1016.1
20220811115523 77 181 0.0 0.9 0.00 0.00 0.00 49 1016.1
20220811115022 77 181 0.0 1.7 0.00 0.00 0.00 49 1016.0
20220811114021 77 181 0.0 1.7 0.00 0.00 0.00 49 1015.8
20220811113522 77 181 0.0 1.7 0.00 0.00 0.00 49 1015.8
20220811113026 78 182 0.0 0.9 0.00 0.00 0.00 49 1015.8
20220811112522 78 183 0.0 0.9 0.00 0.00 0.00 49 1015.8
20220811112018 78 183 0.0 0.9 0.00 0.00 0.00 49 1015.9
20220811111515 78 183 0.0 0.9 0.00 0.00 0.00 48 1015.7
20220811111018 78 183 0.0 0.9 0.00 0.00 0.00 48 1015.7
20220811110518 78 183 0.0 1.7 0.00 0.00 0.00 48 1015.6
20220811110015 78 182 0.0 1.7 0.00 0.00 0.00 48 1015.6
20220811105514 78 183 0.0 0.9 0.00 0.00 0.00 48 1015.7
20220811105018 78 183 0.0 1.7 0.00 0.00 0.00 48 1015.7
20220811104018 78 183 0.0 1.7 0.00 0.00 0.00 48 1015.6
20220811103514 78 183 0.0 1.7 0.00 0.00 0.00 48 1015.6
20220811103030 78 183 0.0 0.9 0.00 0.00 0.00 48 1015.7
20220811102515 78 183 0.0 1.7 0.00 0.00 0.00 47 1015.8
20220811102014 79 183 0.0 2.6 0.00 0.00 0.00 47 1015.6
20220811101512 79 182 0.9 2.6 0.00 0.00 0.00 47 1015.6
20220811101053 79 168 0.9 3.5 0.00 0.00 0.00 47 1015.5
20220811100512 79 168 0.9 3.5 0.00 0.00 0.00 47 1015.6
20220811100012 79 164 1.7 3.5 0.00 0.00 0.00 47 1015.6
20220811095511 79 142 0.9 3.5 0.00 0.00 0.00 47 1015.7
20220811095013 79 166 0.9 4.3 0.00 0.00 0.00 46 1015.7
20220811094010 79 127 0.9 3.5 0.00 0.00 0.00 46 1015.7
20220811093509 80 177 0.9 3.5 0.00 0.00 0.00 46 1015.7
20220811093011 80 152 0.9 3.5 0.00 0.00 0.00 45 1015.7
20220811092508 80 147 1.7 4.3 0.00 0.00 0.00 45 1015.8
20220811092011 80 158 1.7 4.3 0.00 0.00 0.00 45 1015.9
20220811091508 80 168 1.7 3.5 0.00 0.00 0.00 45 1016.1
20220811091006 80 193 1.7 3.5 0.00 0.00 0.00 44 1016.1
20220811090510 80 183 1.7 3.5 0.00 0.00 0.00 44 1016.0
20220811090011 81 177 0.9 3.5 0.00 0.00 0.00 44 1016.1
20220811085506 81 175 0.9 3.5 0.00 0.00 0.00 44 1016.1
20220811085007 81 162 1.7 4.3 0.00 0.00 0.00 44 1016.2
20220811084005 81 185 1.7 4.3 0.00 0.00 0.00 44 1016.4
20220811083504 81 177 1.7 4.3 0.00 0.00 0.00 44 1016.4
20220811083016 81 152 1.7 4.3 0.00 0.00 0.00 43 1016.4
20220811082505 81 187 1.7 3.5 0.00 0.00 0.00 43 1016.3
20220811082004 81 189 1.7 3.5 0.00 0.00 0.00 43 1016.3
20220811081513 81 198 1.7 3.5 0.00 0.00 0.00 43 1016.3
20220811081005 81 174 1.7 5.2 0.00 0.00 0.00 43 1016.3
20220811080505 81 158 1.7 5.2 0.00 0.00 0.00 42 1016.1
20220811080004 81 194 1.7 7.0 0.00 0.00 0.00 42 1016.3
20220811075502 81 171 3.5 7.0 0.00 0.00 0.00 42 1016.1
20220811075003 81 181 3.5 7.0 0.00 0.00 0.00 42 1016.2
20220811074001 82 173 3.5 7.0 0.00 0.00 0.00 42 1016.3
20220811073501 82 149 2.6 5.2 0.00 0.00 0.00 42 1016.3
20220811073002 82 180 1.7 4.3 0.00 0.00 0.00 42 1016.3
20220811072502 82 162 1.7 3.5 0.00 0.00 0.00 41 1016.3
20220811072110 82 169 1.7 3.5 0.00 0.00 0.00 41 1016.3
20220811071613 82 191 1.7 6.1 0.00 0.00 0.00 41 1016.6
20220811071058 82 155 1.7 6.1 0.00 0.00 0.00 41 1016.6
20220811070558 82 157 1.7 5.2 0.00 0.00 0.00 41 1016.6
20220811070057 82 169 1.7 5.2 0.00 0.00 0.00 41 1016.7
20220811065557 82 162 1.7 4.3 0.00 0.00 0.00 41 1016.7
20220811065057 82 147 1.7 4.3 0.00 0.00 0.00 41 1016.6
20220811064102 82 155 1.7 5.2 0.00 0.00 0.00 40 1016.7
20220811063554 82 160 2.6 5.2 0.00 0.00 0.00 40 1016.7
20220811063054 82 197 2.6 4.3 0.00 0.00 0.00 40 1016.8
20220811062554 83 188 2.6 4.3 0.00 0.00 0.00 40 1016.9
20220811062058 83 158 1.7 4.3 0.00 0.00 0.00 40 1016.9
20220811061626 83 154 2.6 5.2 0.00 0.00 0.00 40 1016.9
20220811061053 83 144 2.6 7.0 0.00 0.00 0.00 40 1016.9
20220811060553 83 161 2.6 7.0 0.00 0.00 0.00 40 1017.0
20220811060052 83 151 2.6 5.2 0.00 0.00 0.00 40 1017.0
20220811055554 83 177 1.7 5.2 0.00 0.00 0.00 40 1017.1
20220811055052 83 164 2.6 7.0 0.00 0.00 0.00 40 1017.1
20220811054054 83 154 3.5 7.8 0.00 0.00 0.00 40 1016.9
20220811053551 83 183 2.6 4.3 0.00 0.00 0.00 40 1016.9
20220811053057 83 178 2.6 7.0 0.00 0.00 0.00 40 1016.9
20220811052549 83 135 1.7 7.0 0.00 0.00 0.00 40 1016.8
20220811052047 83 172 1.7 4.3 0.00 0.00 0.00 40 1016.9
20220811051558 83 168 1.7 3.5 0.00 0.00 0.00 40 1016.8
20220811051044 83 175 1.7 3.5 0.00 0.00 0.00 40 1016.9
20220811050546 83 167 0.9 3.5 0.00 0.00 0.00 40 1016.9
20220811050050 83 152 0.9 3.5 0.00 0.00 0.00 40 1016.7
20220811045542 83 122 1.7 3.5 0.00 0.00 0.00 40 1016.7
20220811045043 84 102 0.9 2.6 0.00 0.00 0.00 40 1016.8
20220811044045 84 102 0.9 2.6 0.00 0.00 0.00 40 1016.8
20220811043541 84 93 0.9 2.6 0.00 0.00 0.00 39 1016.8
20220811043041 84 117 0.0 2.6 0.00 0.00 0.00 39 1016.8
20220811042541 84 122 0.9 3.5 0.00 0.00 0.00 39 1016.8
20220811042041 84 76 1.7 5.2 0.00 0.00 0.00 39 1016.8
20220811041549 84 61 0.9 3.5 0.00 0.00 0.00 39 1016.7
20220811041041 84 99 1.7 4.3 0.00 0.00 0.00 39 1016.7
20220811040541 84 166 0.9 2.6 0.00 0.00 0.00 38 1016.7
20220811040049 84 122 0.9 3.5 0.00 0.00 0.00 38 1016.6
20220811035540 84 95 1.7 3.5 0.00 0.00 0.00 38 1016.5
20220811035040 84 127 0.9 3.5 0.00 0.00 0.00 38 1016.5
20220811034024 84 90 0.9 5.2 0.00 0.00 0.00 38 1016.3
20220811033518 85 127 2.6 5.2 0.00 0.00 0.00 38 1016.3
20220811033112 85 122 1.7 5.2 0.00 0.00 0.00 37 1016.2
20220811032518 85 172 1.7 7.8 0.00 0.00 0.00 37 1016.2
20220811032021 85 127 1.7 7.0 0.00 0.00 0.00 37 1016.3
20220811030004 85 134 1.7 7.8 0.00 0.00 0.00 37 1016.0
20220811025506 85 135 3.5 7.8 0.00 0.00 0.00 36 1015.9
20220811025002 86 103 2.6 8.7 0.00 0.00 0.00 36 1015.8
20220811024510 86 171 2.6 8.7 0.00 0.00 0.00 36 1015.8
20220811024002 86 169 4.3 9.6 0.00 0.00 0.00 36 1015.7
20220811023505 86 76 3.5 9.6 0.00 0.00 0.00 36 1015.7
20220811023002 86 89 4.3 11.3 0.00 0.00 0.00 36 1015.6
20220811022502 86 127 4.3 11.3 0.00 0.00 0.00 36 1015.5
20220811022002 86 171 4.3 13.0 0.00 0.00 0.00 36 1015.5
20220811021006 87 122 4.3 13.0 0.00 0.00 0.00 35 1015.3
20220811020502 87 85 4.3 13.0 0.00 0.00 0.00 35 1015.2
20220811020002 87 112 2.6 12.2 0.00 0.00 0.00 34 1015.3
20220811015502 87 117 7.0 12.2 0.00 0.00 0.00 34 1015.2
20220811015002 87 77 5.2 10.4 0.00 0.00 0.00 34 1015.4
20220811014501 87 82 5.2 13.0 0.00 0.00 0.00 34 1015.2
20220811014002 88 33 7.0 13.0 0.00 0.00 0.00 34 1015.2
20220811013505 88 108 6.1 14.8 0.00 0.00 0.00 34 1015.1
20220811013003 88 40 7.8 14.8 0.00 0.00 0.00 33 1015.0
20220811012601 88 72 7.0 14.8 0.00 0.00 0.00 33 1015.0
20220811012101 89 91 7.8 15.6 0.00 0.00 0.00 32 1014.9
20220811011105 89 60 6.1 15.6 0.00 0.00 0.00 32 1014.8
20220811010600 89 110 3.5 13.9 0.00 0.00 0.00 32 1014.8
20220811010502 89 64 5.2 13.9 0.00 0.00 0.00 32 1014.8
20220811010109 89 137 7.8 14.8 0.00 0.00 0.00 31 1014.7
20220811005601 89 85 7.0 14.8 0.00 0.00 0.00 31 1014.6
20220811005101 89 74 8.7 13.0 0.00 0.00 0.00 31 1014.6
20220811004639 89 50 7.0 15.6 0.00 0.00 0.00 31 1014.6
20220811004103 89 46 9.6 15.6 0.00 0.00 0.00 31 1014.5
20220811003559 90 71 7.0 13.9 0.00 0.00 0.00 31 1014.4
20220811003059 90 57 7.8 13.9 0.00 0.00 0.00 31 1014.5
20220811002605 90 55 6.1 14.8 0.00 0.00 0.00 31 1014.5
20220811002104 90 90 7.0 14.8 0.00 0.00 0.00 31 1014.4
20220811001659 91 127 7.8 13.9 0.00 0.00 0.00 30 1014.2
20220811001100 91 135 5.2 13.0 0.00 0.00 0.00 31 1014.3
20220811000559 91 52 5.2 14.8 0.00 0.00 0.00 31 1014.2
20220811000119 91 137 6.1 16.5 0.00 0.00 0.00 31 1014.0
20220810235600 91 70 7.0 13.9 0.00 0.00 0.00 33 1013.9
20220810235201 91 79 9.6 16.5 0.00 0.00 0.00 32 1014.0
20220810234633 92 51 9.6 17.4 0.00 0.00 0.00 30 1014.0
20220810234104 92 71 7.0 17.4 0.00 0.00 0.00 30 1014.2
20220810233602 92 95 10.4 16.5 0.00 0.00 0.00 30 1014.3
20220810233059 92 85 8.7 15.6 0.00 0.00 0.00 30 1014.2
20220810232558 92 67 8.7 16.5 0.00 0.00 0.00 30 1014.3
20220810232102 92 75 11.3 17.4 0.00 0.00 0.00 29 1014.1
20220810231106 92 83 10.4 17.4 0.00 0.00 0.00 28 1014.1
20220810230558 92 40 13.0 17.4 0.00 0.00 0.00 28 1014.3